Location: Observatorio Las Palmas
(29.0667°N, 110.9333°W)
Time: 14:08:14
(UTC-07:00)

Skynet4D Del rocket - Visible Passes

Search period start: 22 October 2017 00:00
Search period end: 01 November 2017 00:00
Orbit: 763 x 1291 km, 26.9° (Epoch: 21 October)

Date Brightness Start Highest point End Pass type
(mag) Time Alt. Az. Time Alt. Az. Time Alt. Az.
22 Oct 4.4 19:14:11 10° W 19:20:36 60° SSW 19:24:06 31° SE visible
22 Oct 6.1 21:07:07 10° W 21:09:45 21° WSW 21:09:45 21° WSW visible
23 Oct 4.3 18:03:11 10° W 18:09:14 69° S 18:16:14 10° ESE visible
23 Oct 4.9 19:55:41 10° W 20:01:56 43° SSW 20:02:59 40° S visible
24 Oct 4.6 18:44:33 10° W 18:50:35 54° SSW 18:56:18 15° ESE visible
24 Oct 5.8 20:37:38 10° WSW 20:41:57 25° SW 20:41:57 25° SW visible
25 Oct 5.2 19:26:09 10° W 19:31:53 36° SSW 19:35:20 23° SSE visible
25 Oct 6.7 21:20:53 10° WSW 21:21:00 10° WSW 21:21:00 10° WSW visible
26 Oct 4.8 18:14:58 10° W 18:20:39 47° SSW 18:27:06 10° SE visible
26 Oct 5.8 20:08:21 10° WSW 20:13:08 21° SSW 20:14:29 20° S visible
27 Oct 5.4 18:56:42 10° W 19:01:54 29° SSW 19:07:42 10° SE visible
27 Oct 6.6 20:53:29 10° SW 20:53:45 10° SSW 20:53:45 10° SSW visible
28 Oct 6.2 19:39:22 10° WSW 19:43:07 16° SSW 19:47:09 10° SSE visible
29 Oct 5.8 18:27:23 10° WSW 18:31:57 24° SSW 18:36:57 10° SSE visible
30 Oct 6.4 19:11:01 10° SW 19:13:09 12° SSW 19:15:23 10° S visible
31 Oct 6.1 17:58:15 10° WSW 18:02:03 18° SSW 18:06:06 10° SSE visible
